This is the latest recevied weather packets stored in our database for station/object KQ4PPF. If no packets are shown the sender has not sent any weather packets the latest 10 day(s).
| Time | Temp. | Humidity | Pressure | Rain* | Wind** | Luminosity | Snow |
|---|---|---|---|---|---|---|---|
| 1778093536 | 20° C | 98% | 1011.8 hPa | 0 mm | - | 17 W/m² | - |
| 1778093234 | 20° C | 98% | 1011.9 hPa | 0 mm | - | 10 W/m² | - |
| 1778092931 | 20° C | 98% | 1012.5 hPa | 0 mm | - | 12 W/m² | - |
| 1778092628 | 20° C | 98% | 1013.1 hPa | 0 mm | - | 24 W/m² | - |
| 1778092323 | 20° C | 98% | 1012.8 hPa | 0 mm | - | 22 W/m² | - |
| 1778092021 | 20° C | 97% | 1013 hPa | 0 mm | - | 17 W/m² | - |
| 1778091718 | 20° C | 97% | 1013.3 hPa | 0 mm | - | 11 W/m² | - |
| 1778091416 | 20° C | 97% | 1013.6 hPa | 0 mm | - | 5 W/m² | - |
| 1778091113 | 20.56° C | 96% | 1013.2 hPa | 0 mm | - | 15 W/m² | - |
| 1778090809 | 20.56° C | 95% | 1013.1 hPa | 0 mm | - | 27 W/m² | - |
| 1778090500 | 20.56° C | 94% | 1013.1 hPa | 0 mm | - | 18 W/m² | - |
| 1778090197 | 20.56° C | 93% | 1013.1 hPa | 0 mm | - | 30 W/m² | - |
| 1778089892 | 21.11° C | 93% | 1012.7 hPa | 0 mm | - | 58 W/m² | - |
| 1778089586 | 21.11° C | 93% | 1013 hPa | 0 mm | - | 70 W/m² | - |
| 1778089282 | 21.11° C | 92% | 1013 hPa | 0 mm | - | 76 W/m² | - |
| 1778088980 | 21.11° C | 92% | 1012.8 hPa | 0 mm | - | 106 W/m² | - |
| 1778088677 | 21.11° C | 93% | 1012.6 hPa | 0 mm | - | 124 W/m² | - |
| 1778088374 | 21.11° C | 93% | 1012.5 hPa | 0 mm | - | 88 W/m² | - |
| 1778088070 | 21.11° C | 92% | 1012.6 hPa | 0 mm | - | 62 W/m² | - |
| 1778087768 | 21.11° C | 91% | 1012.6 hPa | 0 mm | - | 115 W/m² | - |
| 1778087465 | 21.11° C | 92% | 1012.5 hPa | 0 mm | - | 130 W/m² | - |
| 1778087161 | 21.11° C | 92% | 1012.3 hPa | 0 mm | - | 150 W/m² | - |
| 1778086859 | 21.11° C | 92% | 1012.4 hPa | 0 mm | - | 77 W/m² | - |
| 1778086558 | 21.11° C | 92% | 1012.6 hPa | 0 mm | - | 94 W/m² | - |
| 1778086253 | 21.67° C | 91% | 1012.7 hPa | 0 mm | - | 101 W/m² | - |
* Rain latest hour (hover to see other rain measurements)
** Current wind speed in m/s (hover to see current wind gust speed)